Theta_e
314 313 316 319 322 321 326 331 329 328 325 320 322 323 319 320 320 319 319 318 319 320 319 323 323 323 325 324 330 333 332 343 345 338 340 337 332 337 338 336 336 335 336 336 336 335 335 337 337 338 338 337 337 336 334 333 330 326 322 322 323 319 319 326 332 332 331 331 330 330 331 332 331 331 332 333 333 331 330 327 326 329 330 330 330 330 330 330 331 330 329 329 328 327 328 328 328
315 317 320 321 322 319 326 335 333 328 322 316 320 323 319 318 318 321 323 322 321 321 325 332 331 329 332 329 329 328 326 334 332 331 335 333 335 338 337 337 335 335 336 335 336 336 336 338 337 338 337 337 337 336 335 333 331 327 322 322 323 320 318 323 330 331 332 332 332 332 332 332 333 332 333 334 333 331 329 327 327 328 329 329 330 330 330 331 331 330 330 329 328 327 327 327 327
316 321 323 323 323 323 331 333 331 328 320 318 328 328 318 317 322 326 325 323 318 322 328 329 328 326 329 330 327 325 326 331 329 330 334 335 337 337 337 337 335 336 335 335 337 337 338 338 338 338 337 337 337 336 335 333 332 328 323 322 322 321 319 321 328 331 331 331 331 331 332 334 333 333 333 334 333 331 328 327 327 327 328 329 329 330 331 332 331 330 330 330 329 327 326 326 326
318 323 323 324 326 331 344 337 333 331 320 321 328 326 325 325 325 326 325 323 318 321 324 319 323 320 322 330 329 327 332 335 334 334 336 335 337 338 337 336 336 336 335 337 337 337 338 338 338 338 337 337 336 336 334 333 332 328 323 322 323 322 320 319 324 329 331 330 330 330 332 334 333 333 333 333 332 330 328 326 327 328 328 329 329 329 330 331 331 330 331 330 329 327 325 326 327
320 323 320 323 328 331 338 329 328 326 318 323 323 322 332 331 325 323 322 321 317 318 319 320 327 323 323 332 331 331 333 336 335 334 336 335 337 337 337 337 336 336 336 337 337 337 337 338 338 338 337 337 336 335 334 333 331 328 324 322 323 323 322 319 319 326 331 331 332 331 332 333 333 333 333 332 330 329 328 326 327 327 327 328 328 329 329 330 330 329 330 329 328 326 325 325 325
321 322 320 320 319 321 326 320 321 323 322 325 322 321 330 329 323 323 320 317 318 317 318 320 326 330 331 330 328 330 330 335 337 336 336 336 338 337 337 336 335 336 337 336 336 336 336 338 338 338 337 337 337 335 334 333 330 328 325 322 322 323 323 321 318 324 330 332 332 332 332 334 333 331 332 332 329 329 327 326 326 326 326 328 328 328 328 329 330 330 330 328 326 325 325 324 325
321 322 325 323 319 322 329 324 326 329 321 318 318 320 327 327 323 322 320 316 318 316 316 320 325 331 330 326 327 328 330 333 334 337 336 337 338 336 337 336 335 335 335 337 336 335 336 337 338 338 336 337 336 335 335 332 330 328 326 324 323 324 323 321 319 320 326 330 331 332 332 332 332 330 331 331 329 328 326 325 326 326 328 328 328 328 328 329 329 330 329 328 326 327 327 326 327
321 323 329 334 328 328 331 323 327 329 316 314 317 321 326 325 322 322 320 319 318 317 319 323 323 324 321 324 332 330 330 333 334 338 337 338 338 336 336 336 335 333 334 336 336 336 336 338 338 337 336 337 336 336 335 332 329 328 327 325 324 324 324 323 320 318 322 327 330 331 330 330 332 331 331 330 329 328 325 325 326 326 328 328 328 328 328 328 329 329 328 327 327 327 327 327 327
318 320 326 331 327 327 331 321 320 321 317 318 318 322 323 318 319 321 321 319 317 319 322 324 321 318 319 327 333 329 331 334 334 337 338 339 337 336 336 336 335 333 334 334 335 336 336 338 338 338 336 336 336 336 336 332 329 328 328 327 325 325 324 325 322 319 319 323 327 330 330 330 331 330 330 330 329 328 325 325 326 326 327 327 327 327 328 328 328 328 327 326 326 326 327 327 326
320 320 324 330 329 322 322 320 319 319 317 320 319 321 320 316 318 320 320 319 317 319 319 319 323 322 323 331 334 329 332 334 335 338 339 339 338 336 336 335 335 334 334 333 334 335 336 338 338 338 336 336 336 335 336 332 329 328 328 328 326 325 325 325 324 321 318 320 322 325 328 328 329 329 329 328 328 328 326 325 326 326 326 326 326 327 327 328 328 328 327 325 325 326 326 326 326
326 327 332 334 330 322 318 321 323 327 323 319 320 320 319 316 317 318 318 317 316 317 316 316 325 332 329 334 335 328 330 333 336 339 338 339 339 338 336 335 335 334 334 333 333 334 336 338 338 338 336 337 335 335 335 332 330 328 327 328 327 326 326 325 325 323 320 318 318 320 324 325 325 326 327 327 327 327 326 325 326 326 325 325 326 326 327 328 328 327 326 325 325 325 326 326 326
324 329 346 339 327 323 323 323 323 335 333 323 321 319 317 315 316 318 317 317 317 317 318 315 321 331 332 338 332 325 330 335 336 338 339 339 339 339 337 336 335 335 333 333 333 334 336 338 338 338 337 337 336 336 335 332 331 329 327 327 328 327 326 326 326 325 322 319 317 318 320 321 322 324 327 327 327 327 325 325 326 326 325 326 325 326 327 328 328 327 326 324 324 324 325 326 326
331 333 342 328 321 323 322 321 320 328 330 327 322 315 314 315 317 320 320 319 317 318 318 314 320 326 329 333 327 327 331 335 336 339 339 338 339 339 337 336 336 336 333 333 333 333 336 338 338 338 338 337 336 336 335 333 331 329 328 327 328 328 327 326 326 326 324 321 319 317 317 318 318 321 326 327 327 327 325 324 326 326 326 326 326 326 327 327 327 326 325 324 323 323 324 325 325
336 338 338 321 318 324 324 320 318 320 323 327 321 313 314 315 318 320 319 318 318 320 313 312 322 326 325 324 329 339 335 333 338 339 339 339 339 338 337 337 336 335 334 334 333 333 335 338 338 338 338 337 336 337 336 334 332 330 329 327 327 328 327 327 326 327 325 323 320 319 317 316 314 316 322 326 327 326 322 323 326 326 326 326 326 326 326 326 325 325 324 323 322 322 323 323 324
329 338 341 329 318 320 321 318 322 324 325 327 317 314 317 313 315 319 318 319 319 315 310 310 317 319 321 321 327 339 334 333 337 338 339 339 339 339 338 337 336 335 335 334 334 334 335 336 338 338 338 337 337 337 336 334 333 332 329 328 328 328 328 327 327 327 327 324 322 320 318 315 312 311 318 323 324 324 323 324 325 326 326 326 326 326 325 325 324 324 323 321 320 321 321 322 322
328 338 335 327 319 316 317 316 320 322 325 324 313 313 318 313 312 317 314 315 315 312 314 315 314 318 321 322 322 324 329 335 336 337 339 339 339 340 339 339 337 336 336 336 335 334 334 335 336 338 338 337 338 337 337 335 333 332 331 329 328 328 328 328 328 327 327 326 323 321 319 316 311 308 311 317 320 324 326 324 324 326 326 325 325 325 325 324 323 324 322 319 319 318 319 320 320
325 337 334 324 322 319 317 317 319 321 325 321 312 313 318 315 311 312 309 312 316 315 321 318 316 323 325 324 321 321 330 335 335 337 338 339 339 339 340 340 339 338 338 338 338 336 334 334 335 336 337 337 337 337 337 335 334 333 331 330 329 329 329 329 328 328 328 327 324 322 321 319 312 307 306 310 317 323 326 323 322 325 326 325 325 325 324 323 323 323 321 319 318 316 318 319 320
328 336 331 325 327 324 321 322 321 320 322 317 314 314 317 317 313 311 310 315 317 315 320 318 322 325 323 323 321 323 331 334 335 336 337 337 338 339 339 339 340 339 339 339 340 338 336 335 334 334 337 337 337 337 337 336 335 334 332 331 330 329 329 329 329 328 329 328 326 324 322 321 316 309 305 307 313 320 324 322 321 324 325 323 324 325 324 323 323 322 320 319 318 317 318 319 320
335 333 325 332 337 325 320 323 319 316 317 318 316 313 314 316 314 313 313 317 316 316 317 317 324 326 324 324 322 325 331 333 334 334 335 336 337 338 338 339 339 339 339 339 339 340 338 336 335 334 335 336 337 337 337 336 335 335 333 331 330 330 330 329 329 329 329 329 327 325 324 322 319 313 308 306 309 314 320 322 322 323 323 322 322 324 323 323 322 320 319 319 318 318 318 319 321
329 328 324 337 340 324 318 320 318 316 316 318 316 312 313 314 313 312 314 318 314 319 319 316 322 326 335 328 322 327 330 332 334 334 334 334 336 337 338 338 338 338 338 338 339 340 340 338 337 335 334 335 337 337 337 337 335 335 333 331 330 330 331 330 330 329 329 329 328 327 325 323 322 317 311 307 308 311 317 320 321 321 321 320 320 321 322 321 319 319 320 319 319 319 319 319 321
319 324 328 332 328 320 318 318 318 317 315 318 317 313 313 312 312 312 316 317 316 321 319 319 321 329 343 329 322 328 328 330 332 332 333 332 335 336 337 338 337 337 336 337 338 339 339 339 339 336 334 334 336 337 337 337 336 335 332 331 330 329 331 331 330 329 329 330 330 328 326 324 323 320 314 310 309 311 314 317 319 319 319 319 318 319 319 318 318 319 320 319 319 319 319 319 320
315 318 323 323 319 316 316 317 318 315 312 316 318 315 313 312 312 315 317 318 322 321 317 319 318 328 347 333 324 327 326 329 330 330 331 331 333 334 336 337 337 337 335 336 336 338 338 339 340 338 335 334 335 336 337 337 336 335 333 331 329 329 330 331 331 330 330 330 330 329 328 325 323 322 318 313 311 312 313 314 315 316 317 317 317 317 317 318 319 320 320 320 320 319 319 320 320
318 317 316 318 317 316 316 315 315 313 313 317 318 314 313 314 313 314 315 318 321 316 313 313 310 321 332 328 325 328 328 328 328 330 330 331 332 333 335 336 337 337 336 336 335 338 337 337 339 338 337 334 334 335 336 337 336 336 334 332 329 328 329 330 330 330 330 330 330 330 329 327 325 323 320 316 313 313 314 313 313 314 315 316 316 317 317 318 319 319 320 320 320 319 319 320 321
319 318 315 316 314 315 315 314 314 313 315 316 314 312 313 317 314 311 312 317 316 309 306 305 308 317 323 325 327 327 328 328 328 330 330 331 332 332 334 335 336 336 336 337 336 337 336 337 338 338 338 335 334 334 335 335 336 336 335 333 330 328 329 330 329 328 330 330 330 331 330 329 327 324 322 319 315 314 314 314 314 314 315 315 316 317 317 318 319 319 319 319 319 319 319 320 321
318 318 316 315 313 314 314 314 316 314 314 313 312 313 314 315 312 311 316 320 315 309 312 316 317 322 325 327 328 325 325 326 327 329 330 331 331 331 333 334 335 335 336 337 336 336 336 337 337 337 337 336 335 334 334 334 335 336 335 334 332 330 329 329 328 328 329 329 330 330 330 330 328 326 325 322 318 315 315 315 315 315 315 315 316 317 317 317 317 318 318 319 318 318 319 320 321
318 317 317 316 315 315 313 314 318 317 314 312 314 315 314 312 310 314 319 318 313 312 327 336 330 333 331 328 326 324 325 324 325 327 328 330 330 331 331 332 333 334 335 336 336 335 335 337 337 336 336 337 336 334 333 333 334 335 335 334 333 333 331 329 329 328 328 329 329 329 330 330 329 328 326 324 321 317 316 315 315 315 315 315 315 316 316 316 316 317 317 317 316 317 319 320 320
317 319 317 317 317 315 315 315 316 316 315 314 315 316 315 312 312 317 316 311 310 316 332 335 336 341 332 327 325 322 323 323 325 326 327 328 328 330 330 331 332 332 333 333 334 335 335 336 337 337 336 335 336 335 333 333 333 333 334 334 333 333 333 331 330 329 328 329 329 329 329 329 329 329 327 326 323 320 317 316 316 316 315 315 316 316 316 316 316 316 316 316 315 315 317 319 320
316 319 316 317 317 315 315 315 315 316 314 313 316 315 315 313 314 320 315 309 311 318 329 332 338 340 328 326 325 321 322 322 324 324 325 326 327 329 329 331 331 331 332 331 332 333 334 334 334 336 336 336 335 336 335 333 333 332 333 333 333 333 332 332 331 330 330 329 330 329 329 328 328 328 328 327 325 323 319 316 316 316 316 316 316 316 316 316 315 315 315 315 314 315 316 318 319
315 317 315 317 320 316 313 315 315 316 314 313 315 312 315 316 316 320 313 309 312 317 324 330 334 331 323 324 324 322 321 321 323 323 324 325 326 328 328 330 330 330 330 330 331 331 332 332 333 333 334 336 335 335 336 334 333 332 333 333 333 333 332 333 332 332 331 330 330 329 330 329 328 328 329 328 327 325 322 318 316 316 317 316 316 316 316 316 315 315 315 314 314 314 316 317 319
315 316 317 318 319 315 312 314 315 314 313 314 313 310 318 320 317 315 310 309 312 315 319 323 326 324 319 319 321 323 319 319 322 322 324 324 325 326 326 327 328 329 329 329 330 330 330 330 331 332 332 335 334 334 334 335 335 334 334 333 334 334 333 334 333 333 332 332 331 330 330 330 329 329 329 330 328 327 324 320 318 316 316 316 316 316 316 316 314 314 314 313 313 314 315 316 318
316 312 320 322 315 315 316 314 316 312 311 313 311 310 319 320 317 312 309 312 313 315 320 319 320 320 317 316 317 320 316 315 319 321 323 323 324 325 325 325 325 327 328 328 329 329 330 330 330 330 330 332 333 334 333 334 336 336 336 334 334 334 334 334 334 334 333 333 333 332 331 330 330 330 330 330 329 328 326 323 320 318 317 316 316 317 316 315 314 314 313 313 312 312 314 316 317
322 311 320 322 312 318 320 314 316 315 312 312 310 313 318 318 318 312 309 314 313 315 321 319 319 319 316 315 314 316 313 309 312 317 320 322 323 324 324 324 324 324 325 325 326 326 328 328 329 329 329 330 330 333 334 333 334 335 336 335 335 335 335 335 335 334 334 333 334 333 333 332 331 331 331 331 329 329 329 327 324 321 318 317 316 316 316 315 314 313 312 312 313 313 314 315 316
324 314 319 321 315 319 318 313 316 316 314 314 312 315 319 317 319 315 311 314 314 316 322 322 323 321 318 316 312 313 312 309 308 308 313 318 321 323 323 323 323 322 322 322 323 323 324 324 326 327 328 328 328 329 331 332 333 335 335 335 335 335 335 335 335 335 334 334 334 333 333 333 332 332 332 331 330 330 330 330 328 324 320 317 317 316 315 315 313 313 312 311 313 314 314 314 314
321 317 319 320 318 317 315 316 315 313 315 316 314 314 319 319 320 319 314 312 314 317 322 323 323 322 321 318 315 314 312 313 311 306 308 312 314 317 319 319 320 321 321 321 321 321 321 321 322 323 324 326 328 328 328 329 331 333 335 335 334 334 334 335 335 335 335 335 334 333 333 332 332 332 332 331 330 329 329 329 328 327 324 321 319 318 316 315 313 313 312 311 311 313 314 314 314
320 319 316 316 316 314 316 320 314 312 315 316 317 316 319 321 318 319 314 309 313 316 317 317 318 319 318 316 316 315 313 314 311 306 307 309 309 311 313 315 317 318 319 319 320 320 320 321 321 321 322 323 325 327 328 328 328 330 332 335 335 334 333 333 334 335 335 335 335 335 334 332 332 332 332 332 330 328 327 327 327 326 325 321 318 317 316 315 313 312 313 312 310 311 313 313 313
321 322 321 321 322 318 318 320 314 313 316 318 319 318 320 321 318 320 316 310 312 314 314 315 315 316 315 313 313 312 313 314 309 306 307 309 309 310 311 311 312 313 315 316 317 318 319 320 321 321 321 322 323 326 327 328 328 329 330 332 334 334 334 333 334 335 336 336 335 335 334 334 333 332 333 333 331 330 328 326 324 323 321 319 317 316 315 315 313 312 311 310 310 309 309 311 312
319 321 323 323 322 319 317 317 315 312 316 318 319 319 320 319 318 318 315 310 311 315 316 317 316 316 315 314 313 312 312 311 307 306 308 308 309 310 310 310 310 311 311 312 314 315 316 318 319 320 320 322 324 325 327 327 328 329 330 331 331 332 333 333 334 334 334 335 335 334 333 334 333 330 331 332 331 331 330 328 326 322 320 319 319 318 317 316 313 312 309 308 309 308 307 307 308
320 320 321 319 318 319 315 314 315 312 314 317 316 318 319 319 318 316 314 312 314 317 318 317 317 315 314 313 313 313 311 308 306 306 307 308 309 309 309 310 310 311 311 311 312 313 315 317 318 319 320 322 323 324 325 326 327 327 328 328 329 330 330 331 331 332 331 332 333 332 331 331 332 330 329 330 331 330 330 329 328 326 323 321 320 318 317 315 313 312 309 307 307 308 308 307 306
323 319 319 319 318 319 315 314 315 312 313 319 319 319 319 318 317 315 313 314 314 314 315 315 314 314 312 312 312 311 311 310 309 307 306 306 308 308 309 309 309 310 311 310 311 312 313 315 317 318 320 321 322 323 324 325 326 326 327 327 328 328 328 328 329 329 330 330 331 332 331 330 332 332 331 331 332 331 329 328 328 327 327 326 322 317 315 313 312 310 309 308 307 306 306 306 306
322 321 321 319 318 318 317 314 315 312 312 317 319 317 317 315 316 317 311 309 311 311 313 313 311 312 311 310 311 310 311 311 309 309 307 304 305 307 307 308 309 309 310 310 311 311 312 314 315 317 320 321 322 323 324 325 326 326 327 327 327 327 327 327 328 328 329 330 330 331 331 331 330 330 332 333 333 332 330 329 328 326 325 326 324 320 317 315 313 310 308 309 308 305 303 303 305
319 327 330 324 321 321 318 315 316 315 311 314 315 315 322 324 323 324 314 309 311 311 312 314 312 310 309 310 311 309 310 310 309 312 310 303 302 305 306 306 307 308 309 310 311 311 312 313 315 317 319 321 322 323 324 325 326 327 327 327 326 326 326 326 327 327 328 329 330 330 330 331 329 327 330 333 334 333 331 329 328 327 325 324 322 321 319 317 315 313 311 310 310 308 305 303 303
315 325 332 329 329 327 320 317 318 319 314 311 310 313 330 334 328 327 322 319 318 312 312 316 314 311 311 311 310 308 310 311 311 313 311 304 301 304 307 307 308 308 309 310 310 311 312 313 315 317 318 320 322 323 324 325 325 326 326 326 326 325 325 325 326 326 327 328 328 328 328 328 328 327 329 331 332 332 331 330 328 327 327 325 323 321 319 317 315 314 313 311 310 310 307 303 301
316 318 322 325 330 328 323 320 317 318 314 309 310 314 322 325 323 324 324 324 323 316 315 317 316 313 312 311 309 307 308 311 312 312 311 306 303 304 307 309 310 310 310 310 311 311 312 314 315 317 318 320 322 323 324 325 325 326 326 326 326 326 325 325 326 326 327 326 326 327 327 327 327 327 327 329 330 331 331 331 329 328 326 326 326 324 321 319 317 316 315 314 313 311 308 304 302
317 316 319 325 329 327 327 326 321 321 314 314 321 319 315 318 318 319 318 319 320 318 317 319 317 316 317 316 313 310 309 310 312 319 321 310 304 306 309 310 312 312 312 312 311 312 312 314 315 317 318 320 321 322 323 324 325 325 325 326 326 326 326 326 326 325 325 325 325 325 325 326 326 326 327 327 329 330 330 330 330 329 328 328 328 326 324 322 321 319 317 315 313 310 308 307 306
319 313 316 323 325 328 332 333 329 320 311 318 327 315 311 321 323 319 314 313 317 320 319 319 317 318 321 323 320 317 316 311 312 323 324 310 305 310 311 311 313 313 313 313 313 313 313 314 315 316 318 319 320 321 322 323 324 324 325 325 325 325 326 325 325 324 323 323 323 323 323 324 324 324 325 326 326 327 327 328 328 329 329 328 327 326 325 324 323 321 319 316 312 309 308 308 307
316 309 314 318 321 326 328 329 327 318 314 325 326 312 311 318 326 326 314 309 319 324 321 319 317 318 321 324 325 324 323 318 317 320 312 306 309 312 312 313 314 313 314 314 314 314 314 314 315 316 317 317 318 319 320 322 322 324 324 324 324 325 325 324 324 323 322 321 321 321 321 322 322 322 322 323 323 323 323 324 325 326 327 327 326 325 324 323 321 320 319 317 313 311 309 308 308
312 315 320 318 322 327 326 327 323 315 322 329 320 314 312 311 323 329 314 309 317 319 319 319 320 321 320 324 327 328 330 326 326 323 309 304 309 311 312 313 313 313 314 314 314 314 314 314 314 315 316 316 317 318 319 319 320 321 322 323 323 323 324 323 322 322 321 321 320 320 320 320 320 320 320 320 319 319 318 319 320 321 323 324 324 323 323 323 322 321 319 316 313 312 310 309 308
316 323 324 316 321 325 324 328 320 314 327 325 314 313 312 310 320 322 314 316 316 314 317 318 321 323 323 327 328 328 332 331 330 332 320 310 309 310 311 312 312 313 313 313 314 314 314 314 314 314 315 315 316 316 317 317 318 319 319 320 321 321 321 322 321 321 321 320 320 319 319 319 318 318 318 317 317 317 316 316 317 318 320 322 322 321 322 322 321 321 319 316 314 312 311 310 308
320 320 321 319 321 319 322 329 321 318 325 315 310 313 312 313 318 314 315 319 317 316 317 319 319 320 322 326 327 327 331 335 336 336 335 327 313 307 308 310 311 312 312 312 313 313 313 313 313 313 314 313 314 314 315 316 316 317 317 318 318 318 319 319 319 320 319 319 319 318 317 317 317 316 316 316 316 316 316 316 316 317 318 320 321 322 322 321 320 319 317 317 315 314 314 312 309
316 315 319 320 321 316 318 322 315 315 319 311 308 312 314 317 315 313 316 313 314 317 316 318 317 317 316 315 319 325 328 333 337 336 342 336 313 304 307 310 311 312 313 313 313 313 313 313 313 313 313 313 313 313 313 314 314 315 315 316 316 316 317 317 317 317 317 317 317 317 316 316 316 315 315 315 315 315 316 316 316 316 317 318 319 320 320 320 319 318 317 317 316 316 316 314 311
314 315 315 318 326 324 320 320 319 320 320 313 308 312 322 320 309 311 315 311 313 316 317 316 314 315 315 309 312 321 325 329 335 336 336 323 307 305 310 312 313 314 313 314 314 314 313 313 312 313 312 313 312 312 312 312 313 313 314 314 315 315 316 316 316 316 316 316 316 316 316 315 315 315 315 315 314 314 314 314 314 315 315 316 316 317 317 318 318 317 316 316 316 316 315 313 310
315 313 312 314 323 325 317 313 318 319 316 315 312 316 324 317 308 310 310 310 313 314 315 316 316 317 318 317 320 325 327 329 331 332 330 316 306 309 312 312 314 314 314 314 314 313 313 313 313 313 312 312 312 312 312 312 312 312 312 313 313 314 314 314 315 315 315 315 315 315 315 315 315 315 314 314 314 314 313 313 313 313 313 313 313 313 314 314 315 314 313 313 314 315 313 311 310
315 312 316 318 317 322 317 307 309 311 311 315 314 317 321 314 311 316 312 310 312 312 313 313 316 320 320 322 325 324 322 323 325 327 325 314 308 310 312 313 314 314 313 314 313 313 313 313 313 313 312 312 311 311 311 311 311 311 312 312 312 313 313 313 314 314 314 314 314 315 314 314 314 314 314 314 313 313 313 312 312 312 312 311 311 312 311 311 312 311 310 311 312 313 312 311 309
316 318 319 314 310 318 319 312 315 315 314 318 315 314 318 314 315 320 315 311 313 314 314 311 313 317 318 318 319 319 318 320 325 326 321 310 307 310 313 312 313 313 313 313 313 313 313 312 312 312 312 312 311 311 311 311 312 312 312 312 312 312 312 312 313 313 313 313 313 314 314 314 314 313 313 313 313 313 312 312 311 311 311 311 311 311 311 310 311 310 310 311 312 312 312 311 311
316 320 316 313 315 319 315 313 320 317 313 321 320 312 311 312 319 323 315 312 318 316 312 311 311 314 316 316 319 322 323 324 326 327 326 315 307 310 313 312 314 313 313 313 312 312 312 312 312 311 312 312 311 311 311 311 312 311 312 311 311 312 312 312 312 312 313 313 313 313 313 313 313 313 313 312 312 312 311 311 311 311 310 310 310 310 310 310 310 310 308 309 310 311 312 311 311
311 311 309 315 324 323 316 313 316 316 313 319 322 318 316 316 320 321 314 315 322 318 314 314 313 315 316 316 321 325 325 328 326 325 328 317 308 310 312 312 313 312 311 312 311 311 311 311 311 311 311 311 311 311 311 311 311 311 311 311 311 311 311 311 311 312 312 312 312 312 312 312 312 312 312 312 312 311 311 311 310 310 310 310 309 309 309 309 309 309 307 307 309 310 310 311 311
312 312 311 315 317 315 315 314 314 317 319 320 320 319 323 322 317 318 316 315 317 317 317 317 315 316 316 315 320 324 325 326 322 323 326 313 306 309 310 309 310 310 309 310 309 310 310 310 310 310 310 310 310 310 310 310 310 310 310 310 310 310 310 311 311 311 311 311 311 311 311 312 311 311 311 311 311 311 311 310 310 310 309 309 309 309 308 308 308 308 307 307 308 308 309 310 310
313 313 313 315 315 315 316 315 312 313 316 320 319 314 321 324 314 312 313 310 311 315 318 317 315 316 317 314 318 323 325 323 320 324 324 308 303 306 307 307 308 307 307 307 308 309 309 309 309 308 309 308 308 309 309 309 309 309 309 309 309 309 309 310 310 310 310 311 311 311 311 311 311 311 310 310 310 310 310 309 309 309 309 309 309 308 308 308 308 308 308 307 308 307 307 308 308
Wind_Speed
3 1 2 3 2 3 2 5 2 3 3 2 2 1 3 2 2 2 2 2 1 2 3 2 3 6 3 3 6 7 4 4 6 4 3 4 5 23 20 15 23 24 24 23 22 22 21 19 16 14 14 15 14 13 12 12 13 14 14 14 15 15 16 16 16 15 15 15 15 15 14 12 12 12 14 16 17 16 15 17 19 18 17 18 18 18 18 18 19 19 20 20 20 20 19 19 19
2 1 2 4 2 2 1 3 3 3 5 1 3 2 3 2 1 4 6 6 3 2 2 5 5 5 4 4 5 4 2 1 4 3 2 1 10 21 15 16 24 23 24 23 23 22 20 19 16 15 14 15 13 13 13 12 13 13 13 14 15 15 15 16 16 15 15 15 14 15 14 13 13 13 14 15 17 18 18 19 19 18 18 18 18 18 17 18 18 18 19 19 19 19 18 18 18
1 2 2 4 3 3 1 4 2 1 4 1 4 3 2 1 5 6 7 7 4 3 3 4 4 4 4 4 3 3 1 2 3 1 1 7 11 17 15 17 22 23 25 24 23 22 20 19 16 15 14 15 13 13 13 12 13 12 12 14 15 14 14 15 16 15 14 14 14 14 14 14 13 13 13 14 17 18 18 19 19 18 18 18 17 18 17 18 18 18 17 17 17 17 17 17 17
2 2 1 3 3 4 4 4 2 4 2 3 3 5 3 5 7 6 7 7 4 3 2 1 2 1 1 2 1 1 0 2 3 2 2 8 12 17 17 19 22 22 24 23 23 21 19 18 16 15 14 15 14 13 13 12 12 11 12 13 14 14 14 14 15 15 15 14 14 13 13 13 12 13 14 14 17 18 18 19 19 18 17 17 17 18 17 17 18 17 16 16 16 15 16 16 16
4 3 1 3 3 2 3 3 2 4 4 4 2 5 5 6 7 6 5 4 5 1 0 2 2 2 1 2 1 1 2 1 3 3 4 9 13 18 19 21 23 22 24 23 22 20 18 17 16 15 15 14 14 14 13 12 12 11 11 13 14 13 13 13 14 16 16 14 13 13 13 12 12 14 14 15 16 16 18 18 19 17 16 16 16 17 17 17 16 16 15 15 15 15 16 16 17
5 5 6 5 3 1 3 1 1 1 5 5 3 6 6 6 6 6 2 2 4 3 3 1 1 2 2 1 0 2 2 1 3 3 6 10 13 18 21 23 22 22 24 22 21 20 18 16 16 16 15 14 14 14 13 12 11 10 11 12 13 13 13 13 14 15 15 14 13 14 13 12 13 13 13 14 14 15 17 18 18 16 16 16 16 16 16 16 15 15 15 15 14 15 16 17 17
4 3 5 6 3 2 4 2 4 3 4 5 3 5 5 6 5 6 3 1 2 1 2 1 2 5 2 2 1 1 1 1 3 2 7 11 15 20 22 23 22 22 22 21 21 19 18 16 16 16 15 15 14 14 12 12 11 10 10 11 12 12 12 12 13 13 14 14 15 14 12 12 12 12 12 12 13 14 14 16 17 16 16 16 16 16 15 15 15 15 14 14 14 15 15 16 15
4 1 1 4 2 4 5 2 4 3 2 3 3 5 5 6 6 7 6 3 2 1 1 2 1 4 1 1 2 2 2 3 3 4 9 11 17 21 22 24 22 22 21 21 20 19 19 17 16 16 16 15 14 14 12 12 11 10 10 10 11 11 11 11 11 12 12 14 15 14 12 12 12 11 12 11 12 13 13 16 17 16 15 15 16 15 15 15 14 14 14 14 14 14 14 14 14
5 2 0 3 2 3 3 1 3 3 3 4 4 4 3 5 5 6 6 1 1 2 1 3 1 1 2 2 1 3 1 4 4 7 11 12 19 21 22 24 22 22 21 20 20 20 19 17 17 16 16 15 14 14 12 12 11 10 10 10 10 10 10 10 11 11 11 12 14 14 13 13 13 11 11 12 12 13 15 17 17 15 15 15 15 15 14 14 14 14 14 14 13 13 12 13 14
5 3 1 3 2 2 3 3 2 2 4 4 4 4 3 4 3 4 5 1 1 2 2 2 2 2 3 2 1 1 2 5 5 10 12 14 20 21 22 22 21 21 20 20 20 20 19 18 17 16 16 15 15 14 12 12 11 11 10 10 10 10 10 10 10 10 10 11 12 13 13 13 13 12 12 12 13 14 15 16 16 16 15 14 14 14 14 13 14 13 12 13 13 12 12 13 14
4 4 2 4 3 1 2 3 4 3 5 5 3 4 4 4 4 3 3 1 1 1 2 0 2 3 3 1 2 0 2 5 9 13 12 16 21 19 21 22 20 19 18 20 20 21 20 18 17 16 16 15 15 14 12 12 11 11 10 10 10 10 10 9 9 9 9 10 10 11 11 11 12 12 13 13 14 14 15 16 16 15 15 14 14 14 14 13 13 12 11 11 12 12 13 14 15
2 3 4 4 2 1 3 2 4 5 6 4 0 2 4 5 4 3 2 2 1 1 3 3 3 4 3 3 3 1 2 8 12 15 14 18 21 18 20 21 20 18 17 19 20 21 19 18 17 16 16 16 16 14 13 12 12 11 10 10 10 9 9 9 9 9 8 8 9 10 10 10 10 12 13 14 14 13 14 17 16 15 15 14 14 13 13 12 11 11 10 10 12 13 14 15 16
3 1 5 3 3 2 2 2 4 4 5 3 2 2 4 5 3 6 6 2 2 3 4 5 4 3 2 3 3 3 3 11 14 16 17 18 19 18 19 20 19 18 17 17 19 20 19 19 18 17 16 16 16 15 13 13 12 11 11 10 10 9 9 9 9 8 8 8 8 9 9 9 10 12 14 13 14 14 14 17 16 15 15 14 13 13 13 12 11 10 10 11 13 13 13 15 16
3 3 5 2 1 2 4 1 2 1 3 5 2 2 3 2 4 6 7 4 4 5 2 2 5 3 2 2 3 4 5 14 16 18 19 18 19 18 19 19 19 18 17 17 18 19 20 19 18 18 17 17 17 15 14 13 13 12 12 11 10 10 9 9 9 9 8 7 7 8 8 8 9 11 13 14 14 13 14 17 16 14 14 13 13 13 12 12 11 11 11 11 12 12 12 13 14
4 3 4 3 2 1 3 1 1 4 4 4 2 4 4 1 3 5 6 6 6 5 1 0 2 2 3 3 2 5 9 17 19 20 20 20 19 18 18 19 19 18 18 18 18 18 19 19 19 19 19 18 17 17 15 14 14 13 13 12 11 11 10 9 9 9 8 8 7 7 7 7 8 10 13 13 14 14 14 16 17 15 12 13 13 13 12 11 11 11 11 11 10 11 11 11 11
3 4 5 3 1 1 3 2 3 3 4 4 1 3 5 3 3 4 5 4 2 1 2 1 1 0 3 6 2 3 12 20 20 20 20 20 19 19 19 18 18 18 18 18 18 19 19 20 20 20 20 19 19 18 17 16 15 14 13 13 12 11 10 10 9 9 9 8 8 7 7 7 7 9 12 13 14 15 14 14 17 16 12 12 13 12 12 11 11 11 11 10 10 10 11 11 11
3 4 5 1 2 3 4 4 4 4 5 4 3 3 8 3 1 2 2 4 4 0 2 2 1 0 3 3 2 1 15 22 21 21 20 19 19 19 19 19 19 19 19 19 19 20 20 20 21 21 21 21 20 19 18 17 16 15 14 14 13 13 12 11 10 9 9 9 9 8 8 7 8 9 11 13 15 16 14 13 17 16 11 11 12 11 11 11 11 11 11 10 9 10 10 11 11
4 3 3 1 3 4 5 7 7 5 2 4 4 4 8 4 3 1 1 4 3 1 3 3 3 3 3 5 5 6 20 23 23 23 21 20 18 19 19 20 20 20 21 21 21 21 21 22 21 21 22 22 21 21 20 18 17 17 16 15 15 14 13 13 12 11 11 11 11 10 9 9 9 9 10 12 14 15 14 14 16 17 13 11 12 12 11 11 10 11 11 10 9 9 9 11 12
4 3 3 3 5 5 6 7 5 3 1 4 4 2 5 5 4 2 2 2 2 2 3 4 4 5 2 4 1 14 23 24 25 24 22 21 20 20 20 21 22 22 23 23 23 22 22 22 22 22 22 23 22 22 21 20 19 18 18 17 16 16 15 15 14 13 12 12 12 12 11 10 10 10 10 12 13 14 14 14 15 17 15 12 12 12 12 11 10 11 11 10 10 9 9 11 12
2 4 2 5 6 4 4 6 5 4 3 5 4 3 2 3 3 1 3 2 0 5 5 1 4 8 4 3 5 17 20 21 23 23 21 21 21 21 21 23 25 25 25 24 24 23 23 24 23 23 23 24 24 23 23 22 21 20 19 19 18 18 17 17 16 15 14 13 13 13 12 12 11 11 12 13 14 14 14 15 16 16 15 13 13 14 14 12 11 12 12 11 10 10 9 11 12
2 4 4 6 4 2 3 5 5 4 4 5 5 4 1 3 2 1 5 5 3 6 7 8 9 9 6 3 7 15 17 18 20 21 20 21 21 22 23 24 26 25 24 23 25 25 25 25 25 24 24 25 25 25 25 23 23 22 21 20 20 20 19 19 18 17 16 15 15 14 14 13 13 13 13 14 15 15 15 16 16 17 16 15 14 14 13 11 11 13 13 11 10 10 9 10 12
2 1 4 5 3 1 1 3 3 4 4 5 7 6 3 2 2 3 8 6 6 7 7 9 10 8 9 8 10 12 14 15 16 19 20 21 22 23 24 24 23 23 23 24 26 27 27 27 26 25 26 26 27 27 26 25 24 24 23 22 22 22 22 21 20 19 18 17 16 16 15 15 15 14 15 15 16 16 16 16 17 17 17 16 14 14 12 11 12 13 12 12 11 10 10 11 12
2 2 2 3 3 1 2 2 2 4 6 7 6 4 3 3 1 2 7 8 7 5 4 6 7 7 9 11 13 11 11 13 16 21 24 24 25 26 27 25 24 24 25 25 26 28 29 29 28 27 27 28 28 27 27 26 26 25 24 24 24 24 24 23 22 21 20 19 18 18 17 17 17 16 16 17 17 17 17 17 17 17 17 16 15 14 13 13 14 13 13 12 11 11 10 11 13
4 2 2 2 3 1 3 2 1 4 6 5 4 3 3 4 3 1 4 11 7 4 3 3 5 10 11 10 12 12 14 17 20 25 27 27 28 28 26 25 24 23 24 26 26 27 29 31 30 28 28 29 29 28 28 28 27 27 26 26 25 25 25 25 24 22 22 21 20 19 19 18 18 18 18 18 18 18 18 18 18 18 17 16 15 15 15 16 15 14 14 13 12 12 11 12 14
2 3 3 2 1 3 4 2 3 2 3 1 4 4 1 5 3 1 7 11 7 4 2 3 6 9 9 10 11 11 12 16 19 21 23 24 23 22 22 23 23 23 25 27 27 28 30 31 31 31 30 29 30 29 29 29 28 28 28 28 27 26 26 26 26 25 24 23 22 21 21 20 20 19 19 19 19 19 19 19 19 18 18 17 16 17 17 17 16 16 15 14 13 13 13 13 14
3 4 3 3 1 5 4 2 5 3 1 2 4 2 3 3 1 3 8 8 6 2 5 5 7 7 7 9 10 11 10 14 18 19 21 21 20 20 23 25 25 27 29 28 28 29 29 30 31 32 32 31 30 30 30 30 30 30 30 29 29 28 28 27 27 27 26 25 25 24 23 22 22 21 21 20 20 20 20 20 20 19 19 18 18 18 18 18 17 16 16 15 14 13 14 14 15
3 6 5 4 2 5 4 2 4 4 1 3 3 2 4 2 1 4 5 5 4 2 5 3 6 7 8 7 8 10 11 15 18 16 16 18 20 24 26 27 29 31 31 31 32 30 29 29 30 31 32 32 31 31 31 30 30 31 31 30 30 30 29 28 28 28 28 27 26 25 25 24 23 22 22 21 21 21 21 21 21 21 20 19 19 19 19 18 18 16 16 15 15 14 14 15 16
4 6 5 6 5 3 5 3 4 4 1 2 3 2 4 2 1 6 5 5 2 5 3 2 5 6 7 7 6 8 11 14 15 14 16 21 26 29 30 32 34 33 34 36 35 31 30 31 30 30 31 32 33 32 32 31 31 31 31 31 30 30 30 29 29 29 29 28 27 26 26 25 25 24 23 22 22 22 22 23 23 22 21 21 20 20 20 19 18 17 16 16 15 15 15 16 17
3 4 4 5 7 3 4 2 3 3 1 2 2 1 5 2 5 8 4 5 3 4 3 4 6 6 5 5 5 6 9 11 12 17 23 27 29 30 32 37 35 34 37 37 32 31 32 32 31 30 30 31 33 33 32 32 32 32 31 31 31 31 31 30 30 30 30 29 28 27 27 26 25 25 24 23 23 24 24 24 25 24 23 22 22 22 22 21 21 20 18 17 17 17 17 18 19
2 3 4 1 6 4 4 2 3 1 1 4 1 1 7 7 10 8 3 5 3 1 5 6 6 6 5 5 5 6 9 10 15 22 27 28 28 29 32 35 33 33 35 33 32 34 34 32 31 30 30 31 33 33 33 32 32 33 33 33 32 32 32 32 31 31 30 30 30 29 28 27 26 27 27 25 24 25 26 26 26 26 25 24 24 24 24 23 23 22 21 20 19 19 19 20 21
2 2 2 1 1 4 6 3 0 3 0 4 4 2 7 8 10 7 5 4 2 5 7 6 6 6 6 5 5 7 9 13 19 24 26 27 28 29 32 34 32 33 34 33 35 35 34 33 32 32 32 32 32 34 34 33 31 31 32 33 33 33 33 33 33 32 31 30 30 30 30 29 28 28 29 29 27 25 27 28 28 27 26 27 26 26 26 26 25 25 24 23 22 21 22 22 23
3 2 1 3 3 5 7 3 1 3 1 4 6 2 7 8 9 7 4 3 4 6 7 6 7 7 6 6 6 7 8 13 19 24 27 28 30 31 33 35 33 34 35 36 36 34 34 35 34 34 34 34 35 34 34 34 33 33 33 32 32 33 33 33 34 33 33 32 31 31 31 31 30 30 30 31 31 29 27 29 29 29 28 28 28 29 29 29 28 27 26 25 24 24 25 24 25
4 2 3 2 3 3 4 1 2 0 0 3 2 3 4 4 7 7 3 5 4 2 7 7 7 7 6 6 6 7 7 9 13 21 27 30 32 33 34 35 35 35 36 36 35 34 35 35 35 36 36 36 36 36 35 35 35 33 33 34 32 31 32 33 33 33 33 33 32 31 31 31 32 32 32 34 35 33 30 30 29 28 30 31 31 32 31 30 30 29 28 27 26 26 27 27 26
3 2 2 3 3 2 2 2 3 4 2 1 2 2 6 6 8 8 4 3 4 5 7 8 7 7 7 6 6 6 7 7 9 18 25 27 30 33 33 34 34 34 34 34 34 34 35 34 34 35 36 36 35 35 35 35 36 34 33 33 34 33 32 32 32 33 33 34 35 34 31 31 32 33 33 34 36 36 34 33 30 27 31 34 34 35 33 32 32 31 30 29 28 27 27 28 28
5 3 3 2 2 3 3 3 2 3 2 2 1 3 9 11 10 10 7 1 2 7 7 7 8 8 8 6 6 7 7 9 12 17 20 21 24 27 29 31 32 33 33 33 32 32 32 32 33 33 34 34 35 34 33 33 33 34 34 33 34 35 35 33 32 33 33 34 35 34 33 33 34 36 35 33 33 35 35 35 33 32 35 37 36 36 35 35 35 34 33 32 30 27 27 28 29
9 6 4 5 4 4 5 4 4 0 3 3 4 5 8 11 10 11 9 1 1 8 6 7 8 8 8 7 7 7 8 11 13 14 15 17 19 21 23 25 27 29 30 31 30 30 31 32 32 32 33 33 33 33 31 31 31 32 34 33 33 34 35 35 34 33 33 32 31 30 31 33 31 33 36 34 32 33 35 35 34 34 36 37 36 36 38 38 38 37 34 33 32 28 26 27 29
7 5 4 4 4 3 3 3 5 1 3 3 3 4 8 10 12 13 10 4 4 9 9 8 9 8 8 8 9 9 10 10 8 8 10 12 15 17 18 20 22 24 26 28 29 31 32 32 32 32 32 31 32 32 32 32 32 32 32 34 36 35 34 34 34 35 34 34 33 31 31 30 29 30 32 33 32 34 35 35 33 34 34 35 37 38 40 40 38 37 34 33 32 29 26 27 28
6 6 5 1 2 3 2 1 4 3 1 3 3 4 9 11 12 12 9 7 7 9 9 10 10 9 8 8 10 10 9 8 4 6 8 10 13 14 16 18 19 22 23 26 28 30 31 30 31 32 31 31 31 33 33 33 34 34 33 34 35 34 34 34 35 35 36 35 35 35 33 31 33 35 36 36 35 34 33 31 32 35 36 35 36 37 38 39 38 37 36 33 31 30 29 28 30
5 4 5 2 2 2 3 2 4 4 1 3 3 4 9 11 11 12 10 9 9 8 8 9 9 9 9 9 10 10 10 9 5 5 8 12 14 14 15 18 19 21 21 22 24 26 28 29 31 32 31 31 31 31 32 33 33 33 32 31 30 30 30 32 33 33 33 34 34 35 34 32 33 34 35 37 35 33 34 34 36 38 39 38 37 36 35 36 37 37 38 36 32 30 28 30 34
4 4 5 3 2 1 1 2 3 4 2 1 2 4 8 8 7 9 8 6 7 6 7 9 8 9 11 10 8 8 10 10 7 6 9 12 14 12 13 15 17 19 20 20 21 22 25 27 29 30 30 30 29 29 30 31 30 29 29 28 26 26 27 28 29 30 31 32 32 33 33 34 32 31 31 32 32 32 33 34 34 35 37 38 37 37 37 38 38 38 38 38 35 32 29 30 35
1 3 5 4 3 4 3 1 1 3 3 2 2 4 6 5 5 7 5 4 6 5 6 8 7 8 10 9 9 8 9 8 8 8 8 8 11 12 12 12 13 15 17 19 19 19 21 23 25 26 27 27 27 27 27 28 28 27 26 26 24 22 23 23 24 27 30 30 32 33 34 34 33 33 33 31 31 32 31 31 30 29 30 34 36 37 39 41 41 42 41 41 39 36 33 33 35
2 4 6 7 7 7 3 2 3 3 4 3 4 3 5 5 4 7 5 7 7 5 5 8 8 7 7 8 10 8 7 7 7 9 8 7 10 12 10 9 10 11 12 14 15 16 17 18 20 22 23 24 25 25 25 26 27 27 27 26 25 23 23 24 26 29 31 31 32 33 34 34 33 34 34 33 31 32 34 35 36 35 34 34 35 36 37 38 38 41 42 42 42 41 36 32 34
2 4 6 7 7 8 6 5 4 1 2 2 3 2 4 6 5 7 5 8 10 8 6 8 8 8 7 7 8 6 6 6 6 7 7 8 11 11 8 4 4 5 6 7 10 12 13 15 16 17 19 21 22 22 23 24 26 28 29 29 29 28 28 29 31 31 30 30 31 31 32 33 33 34 36 36 36 35 33 32 34 36 38 38 36 35 36 37 38 40 42 43 44 43 39 34 34
3 3 5 8 8 8 7 6 5 2 3 3 4 3 2 5 6 7 5 6 10 10 8 9 7 8 8 7 7 7 7 6 5 6 6 7 9 9 6 5 4 2 0 2 4 6 8 11 12 13 15 17 18 20 21 23 25 27 29 30 30 30 31 31 29 28 28 28 28 29 30 31 32 33 35 37 38 38 36 34 33 32 33 34 34 35 37 38 39 41 41 43 44 43 43 41 38
3 2 6 7 7 7 5 6 4 0 1 4 5 2 1 6 6 5 5 4 8 9 8 9 8 8 8 7 7 6 6 5 5 5 5 6 6 6 5 5 5 5 4 2 1 1 3 6 9 10 12 13 15 17 19 21 23 25 27 28 30 30 31 30 28 26 25 25 26 27 28 29 30 31 33 34 35 37 37 37 36 34 34 34 34 38 42 42 42 42 42 44 45 45 46 44 39
3 5 7 6 6 6 5 5 4 2 2 4 5 2 1 5 7 4 3 1 5 7 6 7 7 7 6 7 7 6 5 3 2 4 5 4 5 6 6 7 7 7 6 5 4 2 1 3 5 7 9 10 12 14 17 19 21 23 26 27 29 30 30 29 28 27 25 25 25 26 27 27 28 29 29 30 31 33 34 35 35 36 36 36 33 33 37 38 38 38 41 45 47 47 47 46 43
7 6 7 7 6 5 4 3 4 3 2 6 5 3 0 3 6 4 1 2 5 3 4 6 6 7 6 6 7 6 6 5 4 3 3 3 5 7 7 9 9 9 8 6 5 4 2 1 2 3 6 8 10 13 15 17 20 22 24 26 28 29 29 28 29 28 27 26 27 27 27 27 27 28 28 29 29 29 30 32 33 34 35 35 34 33 35 36 36 38 40 43 45 46 46 46 45
6 4 5 5 4 4 4 4 4 2 4 6 4 3 1 3 5 3 3 5 5 3 3 5 6 7 7 7 7 7 5 5 5 5 5 4 6 8 9 10 10 10 9 8 7 6 4 3 1 1 4 6 8 11 14 16 18 21 23 25 26 27 28 29 29 30 29 28 29 29 28 27 27 27 28 28 28 28 29 29 30 32 33 35 37 37 37 35 35 38 40 43 44 46 45 43 42
5 5 6 5 2 3 2 3 1 3 5 3 3 2 2 5 7 6 7 8 7 6 7 7 6 7 7 8 9 8 6 5 5 4 5 5 5 7 9 10 11 12 12 11 10 8 7 5 4 3 3 5 7 9 12 14 17 19 21 23 25 26 27 28 29 30 29 29 29 28 28 28 27 27 27 28 28 27 28 28 29 31 32 34 35 35 35 32 30 32 35 39 43 44 44 43 43
4 6 5 4 3 2 2 4 2 3 4 3 3 2 2 5 6 9 11 9 6 6 7 7 6 7 7 7 8 9 7 6 5 4 4 4 5 7 9 12 14 15 14 13 11 10 8 7 6 6 6 6 7 9 11 13 16 18 20 22 24 24 26 27 28 28 28 28 28 28 28 28 27 28 27 27 26 25 26 27 28 30 32 33 35 36 36 34 32 30 31 35 39 42 43 43 45
3 3 5 5 5 5 4 4 3 4 3 3 3 2 3 3 3 6 9 7 5 5 6 6 6 7 7 5 6 7 7 5 5 5 5 5 5 7 10 13 15 14 12 11 10 9 9 8 8 7 7 6 7 8 10 12 14 15 18 21 23 24 24 25 27 27 27 27 27 27 28 27 27 28 27 26 25 24 25 26 27 29 30 32 33 35 37 37 36 33 32 34 38 41 41 42 44
1 2 5 3 4 5 3 3 5 3 0 2 2 3 4 3 6 7 4 4 6 5 6 5 5 7 6 5 4 5 5 4 4 5 5 5 6 9 11 12 12 11 10 9 9 9 9 9 10 9 9 8 8 9 9 10 11 13 16 19 21 22 23 24 25 26 26 26 27 27 27 27 27 26 26 25 24 24 25 25 26 27 28 29 30 32 34 35 36 35 34 35 37 39 40 41 42
2 2 3 4 4 8 6 1 0 3 1 3 1 3 5 3 6 8 3 4 6 4 3 3 5 6 5 5 5 4 4 4 5 4 4 5 7 9 10 11 11 11 10 10 10 10 11 11 12 13 12 12 11 10 10 11 11 13 15 17 20 21 22 24 24 24 24 24 26 27 27 27 26 26 25 25 25 25 25 25 26 26 26 27 28 29 30 31 32 32 33 35 37 38 38 39 41
5 3 5 4 3 5 5 2 3 4 2 4 1 4 5 2 3 6 5 5 7 5 3 1 5 4 4 4 5 3 3 3 3 3 3 3 6 9 10 11 12 11 10 10 10 10 12 13 13 14 15 15 14 13 13 13 13 14 15 16 18 21 22 23 23 23 23 24 25 26 26 26 26 25 25 25 25 25 25 25 26 26 26 27 27 28 28 29 29 30 32 35 37 38 38 40 41
4 4 3 4 3 2 2 2 1 1 2 4 4 3 3 4 5 4 2 6 8 7 2 1 2 2 2 2 3 5 4 4 4 4 5 5 7 10 11 11 11 11 11 10 10 11 12 12 13 13 14 15 15 15 14 14 15 15 16 17 18 20 21 22 23 23 23 24 25 25 25 26 25 25 25 25 25 26 26 26 26 26 27 27 27 28 28 29 29 30 31 34 36 36 37 39 40
3 3 2 2 3 4 2 3 4 3 3 3 4 4 3 6 6 5 7 8 8 7 4 4 6 7 5 2 5 6 6 6 6 5 5 6 8 10 10 9 9 10 11 11 10 11 11 11 11 10 12 13 13 14 13 13 14 15 16 17 17 18 20 21 22 22 23 25 25 25 25 25 25 25 25 25 25 26 26 26 26 27 27 27 28 28 28 28 30 31 32 33 35 35 35 37 38
3 3 4 2 2 2 2 1 2 4 4 3 2 3 5 6 5 7 9 8 6 6 6 7 8 7 6 4 5 6 7 7 5 5 5 6 8 10 9 8 7 8 9 9 10 10 11 11 10 8 9 10 10 11 11 11 12 14 16 17 17 18 18 19 21 22 23 24 25 25 25 25 26 26 26 26 27 27 27 27 27 27 28 28 29 29 28 28 30 32 32 32 34 34 36 37 38
6 5 7 6 4 4 3 2 1 3 3 4 3 3 7 6 4 5 6 6 6 6 7 8 7 6 6 5 4 6 6 4 3 4 5 6 9 11 10 10 9 10 10 11 11 11 11 12 12 11 10 9 9 9 9 10 12 13 15 16 16 17 17 18 20 21 23 24 25 25 25 26 27 27 26 27 28 28 28 27 28 28 29 29 30 30 30 29 30 32 32 33 34 35 36 37 37
Wind_Direction
356 59 156 160 169 158 39 54 90 325 76 83 292 214 250 214 168 187 215 225 162 245 209 113 136 141 121 151 174 177 150 161 167 134 201 267 151 161 158 154 159 158 157 155 153 151 149 152 157 155 147 143 138 133 128 115 104 100 100 99 95 90 91 97 98 95 96 99 99 96 93 95 95 94 97 98 95 93 89 88 94 94 91 88 85 85 85 88 88 87 86 86 87 86 86 85 85
25 119 156 157 96 110 250 64 97 334 54 62 271 179 257 318 141 198 196 206 209 220 154 116 112 102 65 87 124 125 96 256 173 162 258 128 143 162 158 157 163 160 158 157 156 155 153 156 160 156 148 146 141 137 129 117 110 102 104 104 98 92 91 96 100 99 99 100 100 97 93 94 92 91 93 92 92 92 90 91 98 97 93 91 87 86 88 93 92 88 87 86 85 86 87 88 89
94 146 159 158 54 48 71 44 87 57 77 213 268 242 253 169 206 212 204 223 222 147 109 126 104 80 43 39 74 103 153 306 176 214 309 138 151 166 160 160 165 163 159 159 160 159 158 159 161 156 150 148 145 141 133 123 116 108 108 107 103 97 93 96 100 102 103 100 98 98 97 98 98 96 96 95 95 94 93 94 100 100 96 91 88 88 90 95 94 92 90 88 85 84 87 91 94
129 121 183 170 51 32 62 42 114 117 142 212 263 260 215 189 208 219 226 242 225 108 54 128 73 29 44 65 125 95 183 300 184 160 158 163 165 165 159 161 167 165 162 163 164 163 162 161 162 158 153 152 149 145 139 129 121 114 112 110 107 101 96 97 103 106 105 102 99 101 101 100 102 103 100 98 99 98 96 99 103 102 96 92 90 91 92 93 93 93 91 89 86 85 90 95 98
132 87 52 146 83 48 92 73 102 112 198 188 206 260 226 204 196 203 248 254 223 206 279 134 79 272 40 118 152 115 184 264 169 161 183 176 168 164 160 164 168 166 166 167 168 167 164 162 165 162 157 156 153 150 143 134 126 119 116 114 111 105 100 98 105 109 107 104 101 104 105 104 103 104 102 100 102 100 99 103 105 104 98 94 93 95 96 95 94 95 93 90 87 89 96 100 102
130 85 58 87 90 114 114 103 146 190 224 170 167 255 224 205 190 180 229 286 245 236 199 176 159 174 66 349 65 152 172 100 155 177 186 173 167 168 163 166 170 168 169 171 171 169 165 163 167 167 160 159 158 155 147 138 132 125 120 117 115 110 105 101 106 112 112 110 107 108 109 110 107 105 104 103 103 104 104 105 107 106 103 99 98 99 99 99 97 97 95 93 91 94 99 103 104
137 108 43 72 59 31 101 144 198 231 236 172 175 251 222 201 184 151 149 208 253 286 166 229 174 120 90 304 52 184 349 115 152 151 177 171 169 168 165 169 172 172 173 174 173 171 167 165 170 169 164 164 163 159 151 144 138 130 125 120 119 113 108 105 107 115 118 118 115 112 111 109 109 110 109 107 107 107 108 110 111 110 107 103 101 102 101 101 100 99 96 94 94 97 101 105 106
102 143 5 87 50 20 85 132 218 220 224 215 223 248 230 192 165 144 161 186 198 267 21 258 233 92 206 17 118 242 358 157 163 155 171 169 170 169 169 173 175 176 177 176 175 173 169 168 172 171 167 169 166 161 156 151 146 138 132 128 126 120 114 109 109 114 119 125 122 116 115 112 111 112 111 109 108 107 109 115 116 113 110 105 105 104 103 103 102 101 99 97 97 99 104 105 108
61 48 13 84 81 29 50 315 251 238 252 269 262 248 226 175 148 138 160 226 260 201 270 237 228 74 208 65 143 263 43 166 174 165 170 171 173 171 173 177 179 179 178 179 177 175 172 171 174 172 171 173 170 166 162 159 153 145 140 136 134 130 124 116 114 115 120 128 130 127 124 122 120 115 114 112 109 110 112 117 118 115 112 108 107 106 105 104 104 105 102 101 99 101 106 107 112
39 26 133 72 82 35 349 286 255 263 263 267 263 240 193 161 135 118 140 189 283 146 237 249 69 77 156 121 235 315 117 175 168 166 170 176 175 173 177 180 183 182 179 180 179 178 175 174 176 176 177 176 176 172 168 166 160 155 150 146 144 139 133 126 120 118 122 129 136 139 137 136 133 126 122 119 116 116 118 121 120 118 114 111 111 109 108 107 108 107 106 106 104 105 111 115 118
30 355 96 74 68 58 264 250 282 281 283 296 284 243 188 155 120 94 89 155 290 117 199 167 98 134 112 321 247 118 163 176 168 169 170 175 177 176 180 183 187 187 182 180 181 182 179 177 179 181 182 181 182 180 176 174 169 166 161 156 152 146 141 136 127 122 124 130 137 140 142 144 142 134 127 124 124 123 125 126 124 122 120 116 113 112 113 112 112 111 112 112 110 114 120 124 124
67 340 63 84 131 201 214 206 287 292 309 320 152 270 168 132 122 159 146 163 217 186 216 196 166 145 95 311 260 310 190 174 171 170 169 173 178 180 182 186 189 191 185 181 183 186 182 181 183 185 186 186 187 186 184 181 177 176 172 167 161 153 148 144 138 130 128 132 137 137 141 144 142 138 131 130 131 129 130 131 127 125 123 120 117 117 117 116 116 117 120 119 120 123 125 128 128
111 134 88 101 164 156 164 164 287 322 328 280 192 272 138 130 195 192 157 150 154 157 238 212 171 118 122 254 286 327 201 174 169 170 171 170 176 181 184 188 191 194 190 186 187 188 186 185 187 189 189 191 191 190 190 187 185 185 182 179 170 163 157 153 149 141 137 135 138 138 139 142 140 140 137 135 134 133 136 134 130 127 125 122 120 120 121 121 123 125 125 125 128 130 129 133 133
135 149 111 118 67 118 155 142 288 153 269 263 212 188 156 160 204 176 140 149 209 187 252 208 158 122 149 236 311 310 190 170 168 170 172 169 174 178 184 191 194 197 194 193 192 192 191 189 191 192 193 193 195 194 193 194 192 192 192 189 179 172 166 162 159 151 146 143 142 141 139 140 138 142 143 140 139 139 139 135 131 131 127 125 125 124 127 131 132 130 131 133 136 137 137 140 139
134 131 92 106 39 7 173 147 159 145 235 241 156 157 162 221 139 147 161 163 224 226 295 235 150 164 186 168 238 264 177 167 168 170 173 173 177 180 187 193 196 199 198 199 198 198 196 193 195 196 196 195 197 197 195 198 197 198 198 196 188 180 175 170 167 161 155 151 148 144 142 140 137 143 147 147 147 142 140 140 137 134 135 139 134 129 131 135 138 135 137 142 141 142 144 146 146
120 111 71 91 120 260 186 167 126 123 250 227 200 141 145 247 132 150 218 156 189 285 12 232 79 71 182 152 194 254 165 164 166 169 174 175 181 186 193 197 199 202 201 203 204 204 202 198 199 199 198 196 200 201 199 201 199 201 202 202 197 188 183 179 174 169 163 158 157 155 152 147 144 148 152 152 150 147 149 151 143 139 150 156 139 131 135 135 139 135 141 149 145 144 146 149 150
79 85 71 71 179 218 189 179 168 157 249 248 272 175 147 249 263 171 266 85 129 173 353 259 316 75 190 187 293 197 160 165 165 165 168 170 179 185 192 199 202 205 205 207 207 208 207 205 205 203 202 200 202 203 203 203 200 201 203 205 203 196 189 186 184 179 173 168 168 167 163 158 153 152 156 155 154 155 158 159 148 145 163 163 140 136 138 137 139 137 147 153 146 144 144 146 149
59 83 104 178 189 207 185 181 192 166 228 224 220 187 154 199 227 181 45 50 54 47 322 310 307 267 230 278 296 166 162 166 166 165 165 167 174 179 187 195 200 205 208 209 210 212 211 210 210 207 205 204 205 205 205 203 201 201 204 207 205 202 196 193 193 188 184 179 178 176 171 169 163 159 160 161 162 163 163 162 155 156 171 161 140 139 139 144 146 144 154 156 148 146 145 146 147
84 109 119 217 203 211 195 177 186 164 169 188 185 160 157 193 180 138 188 279 10 142 276 338 320 273 273 316 239 162 164 167 170 169 169 173 178 181 185 192 198 204 207 211 213 214 215 214 214 211 209 208 207 207 207 205 203 203 204 207 206 204 201 200 199 196 193 188 186 183 178 176 172 168 167 168 169 169 168 166 164 168 177 164 148 147 147 158 159 153 158 160 156 151 148 150 151
138 118 129 236 214 227 225 185 187 186 150 150 170 142 150 225 173 142 186 193 260 195 223 260 264 254 249 315 160 160 165 168 174 175 176 182 186 188 190 194 200 205 207 211 215 218 219 218 217 216 213 211 210 209 209 208 207 207 206 207 207 207 206 205 205 203 200 196 193 189 186 184 181 178 174 174 175 176 175 172 173 178 182 175 167 163 164 171 162 157 163 164 162 158 155 154 157
138 123 180 229 201 208 227 198 197 192 171 155 153 129 158 240 174 155 153 141 270 244 223 201 213 217 192 211 176 165 168 171 178 182 184 188 193 197 199 201 206 209 211 213 216 219 221 222 221 219 216 214 213 212 211 210 209 210 209 208 207 208 210 209 208 208 206 203 200 197 193 190 188 187 182 181 181 182 181 179 181 186 188 187 185 180 177 172 160 163 170 170 167 165 165 163 166
121 183 201 202 173 156 239 212 191 153 146 132 129 146 183 180 136 158 156 169 235 236 227 214 209 192 170 172 171 169 174 177 183 189 192 195 199 202 205 207 210 213 215 216 217 219 222 224 225 222 218 216 216 215 215 213 211 212 212 211 209 210 212 213 212 211 211 209 205 203 200 196 195 194 191 188 187 188 188 186 189 195 197 196 196 193 185 174 171 176 176 175 174 173 173 170 173
139 268 261 201 203 241 333 291 223 145 132 141 150 173 141 108 235 187 174 211 222 212 233 237 216 175 157 154 160 170 179 186 193 197 197 198 202 205 206 207 209 212 215 218 219 219 222 225 227 226 221 218 219 219 218 216 214 215 215 214 212 212 213 214 215 214 214 214 211 209 207 204 201 200 199 196 194 194 194 193 195 199 203 204 202 198 191 184 185 187 185 183 180 179 180 176 177
103 180 261 199 200 264 318 331 215 161 147 173 171 130 116 161 203 99 219 238 233 231 276 260 185 152 148 152 166 180 185 193 200 203 202 203 206 207 208 208 210 212 215 219 220 221 223 225 226 228 227 222 220 220 220 219 217 217 218 216 216 216 214 215 218 217 216 216 215 213 213 212 208 207 206 203 202 200 199 198 200 203 206 208 205 200 196 193 193 194 192 190 186 184 184 180 180
95 174 211 145 163 295 318 27 73 119 148 147 115 110 212 205 173 106 248 252 265 278 26 86 132 139 157 168 179 187 190 200 207 210 210 211 212 212 212 213 213 214 217 219 220 222 224 226 226 228 229 227 224 222 221 222 219 218 219 218 217 218 216 217 219 220 218 219 218 216 215 216 215 213 211 210 208 206 203 202 203 206 209 211 208 203 203 201 198 197 197 196 192 189 187 185 184
191 151 162 121 353 322 341 44 40 34 101 62 116 95 311 233 184 276 255 266 286 310 79 100 128 148 184 182 186 190 193 204 208 211 214 216 215 216 217 215 216 217 219 220 220 222 222 225 227 227 229 229 228 225 222 223 222 219 220 222 221 220 219 218 220 222 221 221 220 219 218 218 219 219 217 216 214 211 208 206 207 209 211 213 212 208 207 208 206 202 202 200 197 193 191 190 189
149 114 113 87 1 329 10 61 3 359 38 27 153 190 309 286 327 266 265 312 304 111 88 120 153 178 199 195 199 197 203 208 206 207 209 213 215 218 219 216 219 220 220 222 222 222 221 223 226 228 229 230 230 228 225 224 224 222 220 222 224 224 223 221 221 223 224 224 224 222 220 220 221 223 222 220 219 217 213 210 210 211 213 215 216 214 210 210 211 210 208 206 204 199 195 194 194
111 124 111 19 357 348 21 58 354 351 88 29 125 162 311 354 311 233 243 332 340 138 136 199 188 212 211 206 213 206 219 218 208 206 207 210 213 216 217 217 219 219 221 224 223 222 222 224 225 227 228 229 230 230 229 226 225 225 222 222 225 227 227 225 223 225 227 228 228 226 224 223 222 224 225 225 224 222 219 216 213 213 216 217 217 216 214 212 212 211 210 207 206 203 199 196 197
114 123 125 342 1 11 352 24 325 348 111 331 85 20 303 245 236 239 242 344 34 127 212 241 224 238 232 227 233 221 229 222 211 216 218 217 217 217 219 221 220 220 224 226 225 224 224 225 225 226 227 229 230 230 230 230 229 229 227 225 226 228 228 228 227 227 229 231 232 231 230 229 227 226 226 229 231 228 225 220 217 216 217 218 218 217 215 214 212 210 208 206 206 204 202 199 197
129 73 114 359 10 345 321 356 316 65 111 317 59 257 282 255 254 256 292 336 23 153 244 249 248 252 247 240 240 240 236 221 216 222 224 224 224 223 226 228 224 224 228 228 228 228 227 226 225 226 225 227 230 229 229 230 231 231 231 230 229 230 230 230 230 229 230 231 233 234 233 233 232 230 228 229 232 233 230 225 222 220 218 218 218 217 217 216 214 212 210 207 206 206 206 203 200
102 66 67 64 110 262 302 334 329 138 248 343 103 198 272 268 271 276 311 324 208 241 256 253 262 264 255 247 239 248 242 226 227 230 231 231 230 229 231 233 231 230 232 231 232 232 231 230 227 227 226 225 227 229 229 229 230 230 231 232 231 232 233 233 233 232 232 232 233 234 234 234 233 233 231 228 228 232 233 230 227 225 222 220 219 220 219 218 217 215 213 209 205 207 208 205 202
43 110 312 347 169 254 310 332 148 158 273 25 99 211 274 271 273 279 328 34 155 230 265 272 269 266 260 257 244 250 254 240 238 239 238 236 235 234 234 236 235 234 235 235 236 235 235 234 231 230 228 226 226 226 228 228 230 232 232 233 233 233 234 235 235 235 235 235 234 234 234 234 235 235 235 232 228 227 232 234 232 228 225 223 221 220 218 217 216 215 215 213 209 206 206 205 202
360 108 189 251 174 263 314 329 314 348 168 5 73 215 267 285 280 287 348 61 78 266 283 287 274 269 261 252 247 248 260 257 246 243 242 239 239 239 238 239 239 239 239 238 238 237 238 238 235 234 233 231 229 227 227 227 227 230 233 232 232 232 233 235 235 235 235 236 237 238 237 235 235 235 234 234 230 227 229 231 231 230 228 224 221 220 217 217 217 215 214 213 213 210 205 204 203
292 51 127 219 186 208 286 283 313 22 94 267 9 231 249 275 287 293 302 52 20 317 291 290 284 280 267 252 254 249 252 259 251 245 243 242 242 243 243 244 244 243 242 242 241 240 241 240 238 238 238 235 232 230 229 228 227 228 231 232 233 234 234 236 236 235 236 236 236 237 239 239 239 238 236 235 232 229 229 228 227 232 232 228 226 224 221 220 219 218 216 212 212 212 208 206 205
188 170 147 209 208 205 245 249 265 20 62 215 329 274 264 276 284 289 283 160 300 283 277 285 283 277 273 265 257 251 251 252 250 248 249 250 249 249 249 248 247 246 245 244 242 241 241 241 240 240 239 237 234 232 230 229 228 229 231 233 235 235 236 237 236 236 235 235 232 232 236 239 239 237 236 238 236 233 231 228 227 228 227 223 221 221 218 218 218 218 217 213 210 211 212 209 205
168 176 148 158 181 226 239 246 267 36 105 232 239 245 270 280 284 288 285 149 251 278 278 277 272 270 271 265 256 253 250 251 254 258 260 259 257 257 256 254 252 251 249 247 243 242 241 240 239 239 239 237 233 230 226 226 226 227 229 231 233 234 234 234 235 236 235 236 235 233 234 233 234 235 232 232 238 239 236 232 229 226 223 218 216 218 218 218 216 216 215 211 207 204 206 208 205
137 133 114 148 176 242 251 262 302 1 134 252 250 261 276 274 276 277 280 316 309 279 275 270 264 262 263 261 262 256 247 254 266 267 261 259 258 256 255 254 253 252 250 247 243 242 241 239 237 238 239 234 229 227 224 222 221 222 224 227 230 231 232 232 234 237 238 240 240 240 238 236 243 247 237 231 233 236 234 232 234 233 228 223 223 224 224 221 216 215 213 210 207 202 201 204 204
98 135 134 141 189 226 262 262 316 350 135 269 6 331 277 265 271 271 275 293 275 256 256 261 260 260 262 261 264 263 262 273 281 266 261 256 255 253 251 249 246 246 246 243 242 242 240 237 237 239 238 232 230 229 225 223 222 222 223 226 229 231 232 233 235 238 240 242 242 244 246 247 249 246 239 236 235 233 233 236 240 238 232 229 228 227 225 221 216 215 212 207 206 206 206 205 202
89 116 133 155 213 229 291 317 331 2 55 269 347 334 279 264 265 265 262 261 258 248 240 248 257 261 263 257 258 268 277 285 292 281 273 267 262 254 248 246 243 243 245 244 243 241 239 237 238 239 236 234 233 230 228 228 228 228 227 228 231 232 233 235 236 238 240 242 243 245 246 246 247 242 234 232 232 232 236 241 242 237 232 232 229 224 221 219 215 214 212 209 206 205 208 207 204
96 108 134 179 242 165 219 291 331 7 55 275 299 297 281 280 284 277 267 262 271 272 255 252 248 249 259 264 266 269 271 281 300 294 277 276 276 268 256 251 248 244 242 242 241 239 238 238 238 237 235 235 234 231 230 231 231 230 229 231 234 235 236 238 238 238 239 241 242 242 242 242 244 247 243 239 237 236 236 235 233 229 228 230 229 224 222 221 219 216 214 212 208 202 202 207 206
125 146 143 161 196 177 189 238 348 6 19 23 4 315 291 306 320 290 294 324 297 297 299 279 261 252 265 277 274 260 257 271 284 279 274 278 279 279 275 266 259 253 246 244 242 241 241 241 240 238 237 237 235 234 232 230 229 228 227 228 231 234 236 236 233 234 236 237 239 240 241 241 241 245 246 244 245 245 244 242 239 238 237 232 227 224 223 222 221 220 218 215 213 209 205 206 204
240 217 177 171 174 165 146 92 82 38 0 1 24 349 290 313 315 271 302 342 311 314 319 288 285 288 277 273 273 264 258 258 257 268 282 291 286 290 295 280 267 263 255 250 247 246 246 244 243 240 239 239 237 236 233 230 229 227 225 223 224 226 228 230 231 234 236 237 241 241 242 242 242 242 242 244 247 246 245 245 243 245 247 241 233 228 224 222 220 220 220 217 217 217 213 207 203
201 230 175 148 133 130 134 118 96 102 246 324 46 120 264 311 300 270 318 338 308 312 315 294 296 301 287 273 278 277 269 264 262 275 287 294 301 310 323 332 302 278 260 250 248 249 247 244 243 241 240 240 239 237 235 232 230 229 229 228 228 228 229 234 239 241 243 244 246 245 244 245 243 242 242 244 246 245 243 245 244 241 239 239 237 232 228 226 226 226 225 224 223 220 215 211 209
206 234 130 124 123 132 141 111 95 191 234 330 13 109 232 296 272 275 332 331 307 316 314 308 311 306 302 292 286 278 263 256 262 279 286 293 308 318 332 12 24 24 128 232 244 245 244 242 242 242 242 241 241 240 237 235 233 232 232 233 234 234 237 242 246 246 248 249 249 248 247 247 246 246 244 244 244 245 246 249 249 245 238 237 238 240 240 236 234 231 228 228 225 221 217 217 217
236 207 116 119 122 124 119 95 89 11 359 313 316 53 198 269 274 304 345 309 296 307 301 307 318 314 315 312 308 301 280 256 238 249 269 290 321 342 5 38 51 63 79 88 96 183 225 232 237 240 242 243 242 242 241 239 238 237 237 236 238 240 243 246 248 249 249 249 249 249 249 249 250 249 249 248 247 247 248 248 248 248 246 244 243 243 241 237 234 232 231 230 224 221 221 221 221
187 141 96 78 74 78 79 88 100 50 28 244 267 354 185 266 287 313 2 265 264 279 283 293 304 313 328 332 333 335 330 326 262 245 262 299 1 26 43 63 70 69 73 76 75 88 146 205 228 237 243 246 246 245 244 243 241 239 239 239 241 244 246 246 247 248 248 248 249 249 250 251 252 253 252 253 252 251 249 248 248 248 248 248 246 244 238 232 231 233 234 232 226 223 223 223 224
144 113 74 59 37 35 49 55 82 65 317 252 258 308 108 269 283 269 234 224 213 234 301 309 316 333 346 345 344 342 341 349 354 338 317 347 44 58 61 67 70 69 73 77 77 80 90 136 221 241 249 250 250 249 247 246 244 242 242 243 245 247 248 248 247 248 248 248 249 251 252 253 254 255 256 257 257 256 253 250 249 250 251 252 254 256 251 244 243 244 240 233 228 225 224 224 226
106 90 90 81 8 9 27 1 39 101 255 260 272 297 150 215 264 256 255 259 229 205 269 290 303 321 328 333 334 329 325 330 349 9 5 16 47 54 56 62 66 69 70 69 68 67 63 57 28 290 267 262 258 254 251 250 247 245 246 246 248 250 250 249 249 250 251 251 253 255 255 256 256 257 257 258 258 258 257 254 251 249 250 252 253 253 253 252 249 246 238 230 227 226 225 226 227
72 100 108 97 10 9 1 313 345 209 243 269 284 275 192 231 252 259 265 262 243 226 225 236 261 287 305 317 319 318 326 336 346 2 1 11 27 29 41 52 58 61 58 53 50 45 41 33 12 349 319 291 274 265 260 256 253 252 252 251 252 253 252 252 253 254 255 256 257 258 258 258 258 259 259 260 262 263 260 257 254 251 250 251 252 253 256 258 253 244 237 231 229 229 230 232 232
125 138 132 128 128 105 250 265 288 254 257 294 287 270 256 265 263 253 250 243 226 228 232 235 253 272 282 288 293 299 313 325 330 340 351 1 6 13 32 42 47 51 49 45 41 31 24 16 360 349 341 323 301 288 277 269 264 262 259 257 256 256 255 255 256 258 259 260 261 261 262 262 262 263 264 265 268 268 265 263 260 257 254 253 254 256 258 261 261 256 250 245 240 238 239 238 235
165 159 130 145 157 153 203 217 205 234 271 309 298 272 196 202 267 250 241 253 258 253 264 271 275 280 285 274 263 278 291 300 318 344 349 343 359 23 39 45 48 50 50 47 39 25 15 4 350 341 336 324 310 299 287 280 278 273 266 261 259 259 259 260 261 262 263 263 264 264 265 266 266 268 269 271 272 270 268 267 264 262 260 259 257 257 258 259 260 262 260 257 252 248 245 239 235
232 127 106 158 184 138 133 180 174 169 324 304 266 243 212 204 284 277 250 282 290 279 284 301 298 292 309 310 272 272 289 307 344 9 1 351 24 44 48 52 53 53 54 48 34 19 9 358 346 337 328 315 305 299 292 288 285 278 271 266 264 262 262 262 262 264 265 265 266 267 267 269 270 271 272 272 273 272 270 269 268 267 265 264 262 260 260 259 259 261 262 259 254 249 243 237 235
160 128 169 213 169 113 112 192 75 80 203 266 219 249 288 323 292 294 322 298 298 299 287 307 297 297 328 320 294 304 330 347 354 345 331 350 33 48 51 53 48 45 45 38 26 12 1 354 345 336 329 321 313 310 308 304 295 288 283 277 272 268 265 265 266 267 268 269 269 268 270 271 271 273 275 275 275 273 272 270 270 270 269 268 267 265 263 261 260 261 260 257 254 250 244 239 236
123 175 205 190 118 94 109 156 9 42 233 275 274 232 283 331 268 315 339 281 275 274 248 312 301 312 6 322 307 343 355 1 355 337 341 7 37 44 47 48 38 30 26 20 13 3 356 350 340 333 331 327 323 323 324 323 316 308 303 295 285 277 272 271 271 272 272 271 270 270 272 273 274 275 276 276 276 274 273 272 270 270 270 268 267 266 265 263 260 260 261 258 254 251 247 243 240
122 180 174 117 135 154 92 138 167 132 229 281 301 266 256 201 223 298 292 231 244 249 224 87 246 184 94 337 25 60 63 66 62 54 43 29 36 37 38 38 30 23 17 8 359 353 350 344 336 331 327 325 326 328 329 330 326 320 313 304 295 286 280 277 276 276 275 273 273 274 274 275 277 278 277 276 276 275 274 273 272 272 271 269 267 266 264 262 258 259 262 261 256 252 248 245 243
50 106 114 81 129 162 159 150 165 175 195 254 309 319 264 225 218 215 216 220 224 219 182 171 201 177 155 144 89 90 94 89 82 64 35 11 22 29 29 27 20 18 17 13 9 5 1 355 347 335 323 322 324 325 328 331 328 322 316 310 302 295 288 284 281 279 277 276 277 277 277 278 279 279 278 277 276 275 275 274 273 273 272 270 268 266 264 261 257 258 263 262 258 255 252 249 248
106 122 161 176 74 119 159 103 120 139 161 189 272 298 270 249 210 196 215 225 222 214 186 184 197 181 180 179 120 109 99 87 69 37 7 350 9 23 31 34 30 30 27 24 24 21 20 19 14 0 341 330 325 325 331 331 327 321 317 314 309 303 296 291 288 284 282 282 282 281 281 282 282 281 279 278 278 277 277 275 274 273 272 271 269 268 265 262 258 259 264 264 260 256 255 254 253
163 169 181 175 144 123 147 247 232 121 144 169 176 263 271 256 205 204 227 224 223 219 179 170 189 192 201 199 141 113 96 83 27 353 337 342 3 16 31 40 39 35 28 25 26 26 27 27 25 23 14 359 348 348 349 340 331 325 320 319 314 309 304 299 295 291 290 289 288 288 288 286 284 285 283 281 281 280 279 277 275 274 273 271 270 268 266 262 259 261 264 266 263 259 257 256 255